Other Public Products
Issued by NWS Grand Forks, ND

Home | Current Version | Previous Version | Text Only | Print | Product List | Glossary Off
Versions: 1 2 3 4 5 6 7 8 9 10 11 12 13 14 15 16 17 18 19 20 21 22 23 24 25 26 27 28 29 30 31 32 33 34 35 36 37 38 39 40 41 42 43 44 45 46 47 48 49 50

000
FPUS83 KFGF 031810
OPUFGF
PRAIRIE TO PINES WEATHER ROUNDUP
NATIONAL WEATHER SERVICE EASTERN NORTH DAKOTA/GRAND FORKS ND
100 PM CDT SUN MAY 03 2015

 **SATELLITE DATA USED TO AUGMENT SKY COVER AT AUTOMATED STATIONS**
 *****  WEATHER ACROSS EASTERN NORTH DAKOTA  *****

CITY           SKY/WX    TMP DP  RH WIND       PRES   REMARKS
GRAND FORKS    CLOUDY    64  29  26 NW16G23   29.90S
6HR MIN TEMP:  49; 6HR MAX TEMP:  65;

GRAND FORKS AF CLOUDY    65  26  22 NW17G29   29.90S
GRAND CITY NWS   N/A     63 N/A N/A NW16        N/A
BUXTON         NOT AVBL
DEVILS LAKE    SUNNY     63  25  23 NW24G30   29.92S
6HR MIN TEMP:  48; 6HR MAX TEMP:  63;

FARGO          PTSUNNY   63  32  31 N20G28    29.91R
6HR MIN TEMP:  49; 6HR MAX TEMP:  64;

WAHPETON ARPT  MOCLDY    64  32  29 N17G30    29.90R
$$

 *****  WEATHER ACROSS CENTRAL AND WESTERN NORTH DAKOTA  *****

CITY           SKY/WX    TMP DP  RH WIND       PRES   REMARKS
JAMESTOWN      CLOUDY    62  28  27 N26G35    29.93R
6HR MIN TEMP:  53; 6HR MAX TEMP:  62; 6HR PCP: TRACE;

BISMARCK       SUNNY     64  25  22 NW18G25   29.99S
6HR MIN TEMP:  52; 6HR MAX TEMP:  64; 6HR PCP: TRACE;

MINOT          SUNNY     60  26  27 W18G29    29.99R
6HR MIN TEMP:  45; 6HR MAX TEMP:  61; 6HR PCP: TRACE;

MINOT AFB      SUNNY     61  28  28 NW17      29.98R
6HR MIN TEMP:  43; 6HR MAX TEMP:  61;

GARRISON         N/A     62  23  22 NW12G31   30.00R
6HR MIN TEMP:  48; 6HR MAX TEMP:  63;

WILLISTON      LGT RAIN  60  25  26 NW14      30.04S
6HR MIN TEMP:  39; 6HR MAX TEMP:  60; 6HR PCP: TRACE;

DICKINSON      SUNNY     60  28  29 NW13G20   30.02R
6HR MIN TEMP:  48; 6HR MAX TEMP:  60;

HETTINGER      PTSUNNY   55  31  39 N8        30.04R
6HR MIN TEMP:  49; 6HR MAX TEMP:  57; 6HR PCP: TRACE;

$$

 *****  OTHER OBSERVATIONS NORTHEAST NORTH DAKOTA  *****

CITY           SKY/WX    TMP DP  RH WIND       PRES   REMARKS
WALHALLA       FAIR      63  28  27 NW24G33   29.90R
LANGDON        FAIR      61  30  31 NW22G29   29.92S
CAVALIER       FAIR      63  30  29 W21G30    29.89S
GRAFTON        FAIR      64  30  27 NW16G24   29.90S
CANDO          FAIR      63  25  23 NW16G29   29.94S
FORT TOTTEN      N/A     63  27  25 NW8       29.95S
ROLLA          NOT AVBL
RUGBY          NOT AVBL
 ***** THE ABOVE OBSERVATIONS ARE NON NWS ARE NOT QUALITY
        CONTROLLED AND MAY MIS-REPORT RAIN FOR SNOW...
$$

 *****  OTHER OBSERVATIONS SOUTHEAST NORTH DAKOTA *****

CITY           SKY/WX    TMP DP  RH WIND       PRES   REMARKS
COOPERSTOWN    NOT AVBL
VALLEY CITY    LGT RAIN  59  28  31 N23G29    29.91S
OAKES            N/A     63  32  31 N18G25    29.92R
GWINNER        CLEAR     66  34  30 N21G26    29.94R
BUFFALO        NOT AVBL
WYNDMERE       NOT AVBL
 ***** THE ABOVE OBSERVATIONS ARE NON NWS ARE NOT QUALITY
       CONTROLLED AND MAY MIS-REPORT RAIN FOR SNOW...
$$

  *****  WEATHER ACROSS NORTHERN MINNESOTA  *****

CITY           SKY/WX    TMP DP  RH WIND       PRES   REMARKS
FLAG ISLAND    MOSUNNY   57  36  44 W22       29.80S
WARROAD        PTSUNNY   63  39  42 W17G23    29.85R
ROSEAU         PTSUNNY   63  34  34 NW16      29.85S
HALLOCK        PTSUNNY   64  19  17 NW25G35   29.87S
THF RVR FALLS  CLOUDY    61  34  36 NW18      29.89F
6HR MIN TEMP:  46; 6HR MAX TEMP:  61;

HALSTAD        NOT AVBL
FOSSTON        NOT AVBL
BAUDETTE       PTSUNNY   62  36  37 W21G26    29.83R
6HR MIN TEMP:  46; 6HR MAX TEMP:  63;

WASKISH        CLOUDY    64  43  45 W12       29.85S
CROOKSTON      CLOUDY    61  34  36 NW16      29.91S
$$
  *****  WEATHER ACROSS CENTRAL AND WEST MINNESOTA  *****

CITY           SKY/WX    TMP DP  RH WIND       PRES   REMARKS
BEMIDJI        CLOUDY    60  35  39 NW16      29.87R
PARK RAPIDS    CLOUDY    64  34  32 NW15      29.88R
6HR MIN TEMP:  52; 6HR MAX TEMP:  71;

WADENA         CLOUDY    66  39  37 N15G24    29.86R
DETROIT LAKES  PTSUNNY   64  36  34 N10G24    29.90S
MOORHEAD       PTSUNNY   64  30  27 N18G26    29.91R
FERGUS FALLS   PTSUNNY   66  37  34 N15G24    29.88R
ELBOW LAKE     FAIR      67  40  37 N20       29.86S
6HR MIN TEMP:  54; 6HR MAX TEMP:  69;

MORRIS MN      PTSUNNY   73  39  29 N21G26    29.84R
STAPLES        CLOUDY    70  37  30 NW13G21   29.84R
WHEATON        MOSUNNY   66  39  37 NW28      29.90R
$$
  *****  WEATHER ELSEWHERE ACROSS MINNESOTA  *****

CITY           SKY/WX    TMP DP  RH WIND       PRES   REMARKS
DULUTH         PTSUNNY   74  45  35 W8        29.78R
6HR MIN TEMP:  62; 6HR MAX TEMP:  76;

INTRNTL FALLS  PTSUNNY   64  34  32 NW17G24   29.82R
6HR MIN TEMP:  49; 6HR MAX TEMP:  67;

ELY            MOSUNNY   72  32  23 W15G24    29.76R
CLOQUET        PTSUNNY   73  43  33 W12       29.79R
BRAINERD       LGT RAIN  60  54  80 SW3       29.83R
6HR MIN TEMP:  53; 6HR MAX TEMP:  69; 6HR PCP:  0.01;

HIBBING        MOSUNNY   77  29  17 NW21G26   29.79R
6HR MIN TEMP:  46; 6HR MAX TEMP:  78;

ALEXANDRIA     PTSUNNY   69  45  41 N17G23    29.86R
6HR MIN TEMP:  58; 6HR MAX TEMP:  69;

SAINT CLOUD    MOSUNNY   66  57  72 CALM      29.81R
6HR MIN TEMP:  57; 6HR MAX TEMP:  67; 6HR PCP:  0.02;

MINNEAPOLIS    MOSUNNY   76  55  48 VRB3      29.78F
6HR MIN TEMP:  57; 6HR MAX TEMP:  76;

$$

  *****  WEATHER ACROSS SOUTH DAKOTA  *****

CITY           SKY/WX    TMP DP  RH WIND       PRES   REMARKS
SIOUX FALLS    PTSUNNY   80  55  42 N6        29.78R
6HR MIN TEMP:  55; 6HR MAX TEMP:  80;

BROOKINGS      CLOUDY    72  52  49 N20G26    29.84R
WATERTOWN      SUNNY     72  39  30 N26G39    29.87R
6HR MIN TEMP:  51; 6HR MAX TEMP:  72;

HURON          MOSUNNY   74  36  25 NE25G38   29.86R
6HR MIN TEMP:  50; 6HR MAX TEMP:  75;

SISSETON         N/A     67  39  35 N25G32    29.90R
ABERDEEN       PTSUNNY   68  35  29 N24G30    29.92R
6HR MIN TEMP:  52; 6HR MAX TEMP:  69;

MITCHELL       MOSUNNY   77  52  41 NE25G35   29.82R
PIERRE         MOSUNNY   73  36  25 NE22G33   29.92R
6HR MIN TEMP:  52; 6HR MAX TEMP:  74;

MOBRIDGE       PTSUNNY   65  35  33 N16G24    29.93S
RAPID CITY     SUNNY     67  37  33 N15G23    30.01R
6HR MIN TEMP:  50; 6HR MAX TEMP:  67;

$$

  *****  SOME WEATHER IN NEARBY STATES *****

CITY           SKY/WX    TMP DP  RH WIND       PRES   REMARKS
GLASGOW MT     CLOUDY    55  26  32 NW10      30.08R
6HR MIN TEMP:  35; 6HR MAX TEMP:  56;

GREAT FALLS MT SUNNY     54  32  43 SE7       30.01F
6HR MIN TEMP:  30; 6HR MAX TEMP:  55;

CHEYENNE WY    PTSUNNY   68  31  25 N13       30.02F
6HR MIN TEMP:  52; 6HR MAX TEMP:  68;

SCOTTSBLUFF NE SUNNY     70  38  31 NE12G22   29.97R
6HR MIN TEMP:  48; 6HR MAX TEMP:  70;

OMAHA NE       PTSUNNY   80  60  50 S12       29.75S
6HR MIN TEMP:  62; 6HR MAX TEMP:  80;

DES MOINES IA  CLOUDY    79  58  48 S15G22    29.81F
6HR MIN TEMP:  60; 6HR MAX TEMP:  79; 6HR PCP: TRACE;

DAVENPORT IA   LGT RAIN  68  57  68 W3        29.90S
6HR MIN TEMP:  59; 6HR MAX TEMP:  74; 6HR PCP:  0.03;

CHICAGO IL     PTSUNNY   77  46  33 SW13G28   29.94F
6HR MIN TEMP:  57; 6HR MAX TEMP:  78;

EAU CLAIRE WI  MOSUNNY   74  52  46 S7        29.79F
6HR MIN TEMP:  57; 6HR MAX TEMP:  74;

LA CROSSE WI   MOSUNNY   76  53  44 S7        29.81F
6HR MIN TEMP:  62; 6HR MAX TEMP:  78;

$$

  *****  SOME NATIONAL WEATHER *****

CITY           SKY/WX    TMP DP  RH WIND       PRES   REMARKS
LA GUARDIA NY  MOSUNNY   74  42  31 S13       30.07S


USA.gov is the U.S. government's official web portal to all federal, state and local government web resources and services.